Owatonna, MN

9:12 AM CDT on March 25, 2017 (GMT -0500)
Owatonna Degner Regional

Weather History for KOWA - February, 2013

Change the Weather History Date:

Thursday, February 28, 2013

  Actual Average Record
Temperature  
Mean Temperature 29 °F -  
Max Temperature 30 °F 35 °F 51 °F (1985)
Min Temperature 26 °F 17 °F -29 °F (1962)
Degree Days  
Heating Degree Days 36    
Moisture  
Dew Point 19 °F    
Average Humidity 64    
Maximum Humidity 74    
Minimum Humidity 59    
Precipitation  
Precipitation 0.00 in - - ()
Sea Level Pressure  
Sea Level Pressure 30.09 in    
Wind  
Wind Speed 9 mph (North)    
Max Wind Speed 14 mph    
Max Gust Speed 20 mph    
Visibility 10 miles    
Events Snow    
Averages and records for this station are not official NWS values.
T = Trace of Precipitation, MM = Missing Value Source: NWS Daily Summary

Daily Weather History Graph

Daily Weather History Graph

Search for Another Location

Airport or City:

Trip Planner

Search our weather history database for the weather conditions in past years. The results will help you decide how hot, cold, wet, or windy it might be!

Date:

Astronomy

Feb. 28, 2013 Rise Set
Actual Time 6:51 AM CST 6:00 PM CST
Civil Twilight 6:22 AM CST 6:29 PM CST
Nautical Twilight 5:48 AM CST 7:02 PM CST
Astronomical Twilight 5:15 AM CST 7:36 PM CST
Moon 9:37 PM CST (2/28) 7:52 AM CST (2/28)
Length of Visible Light 12h 07m
Length of Day
11h 09m
Waning Gibbous, 90% of the Moon is Illuminated
Feb 28
Waning Gibbous
Mar 4
Last Quarter
Mar 11
New
Mar 19
First Quarter
Mar 27
Full

Hourly Weather History & Observations

Time (CST) Temp. Windchill Dew Point Humidity Pressure Visibility Wind Dir Wind Speed Gust Speed Precip Events Conditions
12:13 AM 28.4 °F 19.7 °F 21.2 °F 74% 29.98 in 10.0 mi NW 9.2 mph - N/A   Overcast
12:33 AM 30.2 °F 22.6 °F 21.2 °F 69% 29.98 in 10.0 mi NW 8.1 mph - N/A   Overcast
1:13 AM 30.2 °F 20.8 °F 21.2 °F 69% 29.99 in 10.0 mi NNW 11.5 mph - N/A   Overcast
1:33 AM 30.2 °F 21.3 °F 21.2 °F 69% 29.99 in 10.0 mi NNW 10.4 mph - N/A   Overcast
1:53 AM 30.2 °F 21.3 °F 21.2 °F 69% 30.00 in 10.0 mi NNW 10.4 mph - N/A   Overcast
2:13 AM 30.2 °F 21.3 °F 21.2 °F 69% 30.00 in 10.0 mi NNW 10.4 mph - N/A   Overcast
2:34 AM 30.2 °F 21.3 °F 21.2 °F 69% 30.00 in 10.0 mi NNW 10.4 mph - N/A   Overcast
2:54 AM 30.2 °F 21.9 °F 21.2 °F 69% 30.01 in 10.0 mi NNW 9.2 mph - N/A   Overcast
3:13 AM 30.2 °F 22.6 °F 21.2 °F 69% 30.01 in 10.0 mi NNW 8.1 mph - N/A   Overcast
3:33 AM 30.2 °F 21.3 °F 19.4 °F 64% 30.01 in 10.0 mi NNW 10.4 mph - N/A   Overcast
3:53 AM 30.2 °F 21.9 °F 19.4 °F 64% 30.01 in 10.0 mi NW 9.2 mph - N/A   Overcast
4:13 AM 28.4 °F 19.7 °F 19.4 °F 69% 30.02 in 10.0 mi NW 9.2 mph - N/A   Overcast
4:33 AM 30.2 °F 21.3 °F 19.4 °F 64% 30.03 in 10.0 mi NNW 10.4 mph - N/A   Overcast
4:53 AM 30.2 °F 21.9 °F 19.4 °F 64% 30.03 in 10.0 mi NNW 9.2 mph - N/A   Overcast
5:13 AM 30.2 °F 20.8 °F 19.4 °F 64% 30.04 in 10.0 mi NNW 11.5 mph - N/A   Overcast
5:33 AM 30.2 °F 21.9 °F 19.4 °F 64% 30.04 in 10.0 mi NNW 9.2 mph - N/A   Overcast
6:14 AM 30.2 °F 20.8 °F 19.4 °F 64% 30.05 in 10.0 mi NNW 11.5 mph - N/A   Overcast
6:34 AM 30.2 °F 22.6 °F 19.4 °F 64% 30.05 in 10.0 mi NNW 8.1 mph - N/A   Overcast
6:53 AM 30.2 °F 21.9 °F 19.4 °F 64% 30.06 in 10.0 mi North 9.2 mph - N/A   Overcast
7:13 AM 30.2 °F 23.4 °F 19.4 °F 64% 30.06 in 10.0 mi North 6.9 mph - N/A   Overcast
7:33 AM 30.2 °F 22.6 °F 19.4 °F 64% 30.07 in 10.0 mi North 8.1 mph - N/A   Overcast
7:53 AM 30.2 °F 20.8 °F 19.4 °F 64% 30.08 in 7.0 mi North 11.5 mph - N/A Snow Light Snow
8:13 AM 30.2 °F 20.2 °F 19.4 °F 64% 30.08 in 3.0 mi North 12.7 mph 19.6 mph N/A Snow Light Snow
8:33 AM 30.2 °F 21.3 °F 21.2 °F 69% 30.08 in 2.5 mi North 10.4 mph - N/A Snow Light Snow
8:53 AM 30.2 °F 21.9 °F 21.2 °F 69% 30.08 in 4.0 mi North 9.2 mph - N/A Snow Light Snow
9:14 AM 30.2 °F 22.6 °F 21.2 °F 69% 30.09 in 10.0 mi North 8.1 mph - N/A Snow Light Snow
9:33 AM 30.2 °F 21.9 °F 19.4 °F 64% 30.10 in 10.0 mi North 9.2 mph - N/A   Overcast
9:53 AM 30.2 °F 21.9 °F 21.2 °F 69% 30.10 in 7.0 mi North 9.2 mph - N/A Snow Light Snow
10:13 AM 30.2 °F 21.3 °F 21.2 °F 69% 30.10 in 10.0 mi North 10.4 mph - N/A Snow Light Snow
10:33 AM 30.2 °F 21.9 °F 19.4 °F 64% 30.11 in 10.0 mi North 9.2 mph - N/A   Overcast
10:53 AM 30.2 °F 21.3 °F 19.4 °F 64% 30.11 in 10.0 mi North 10.4 mph - N/A Snow Light Snow
11:13 AM 30.2 °F 21.9 °F 21.2 °F 69% 30.11 in 10.0 mi North 9.2 mph - N/A Snow Light Snow
11:33 AM 30.2 °F 22.6 °F 21.2 °F 69% 30.12 in 10.0 mi North 8.1 mph - N/A   Overcast
11:53 AM 30.2 °F 21.9 °F 19.4 °F 64% 30.12 in 10.0 mi North 9.2 mph - N/A   Overcast
12:13 PM 30.2 °F 21.3 °F 17.6 °F 60% 30.12 in 10.0 mi North 10.4 mph - N/A   Overcast
12:53 PM 30.2 °F 22.6 °F 17.6 °F 60% 30.11 in 10.0 mi North 8.1 mph - N/A   Overcast
1:14 PM 30.2 °F 19.8 °F 17.6 °F 60% 30.11 in 10.0 mi North 13.8 mph 17.3 mph N/A   Overcast
1:33 PM 30.2 °F 22.6 °F 17.6 °F 60% 30.11 in 10.0 mi North 8.1 mph - N/A   Overcast
1:53 PM 30.2 °F 21.9 °F 17.6 °F 60% 30.10 in 10.0 mi North 9.2 mph - N/A   Overcast
2:14 PM 30.2 °F 20.8 °F 17.6 °F 60% 30.10 in 10.0 mi North 11.5 mph - N/A   Overcast
2:33 PM 30.2 °F 20.8 °F 17.6 °F 60% 30.11 in 10.0 mi North 11.5 mph - N/A   Overcast
2:54 PM 30.2 °F 21.3 °F 19.4 °F 64% 30.11 in 10.0 mi NW 10.4 mph 17.3 mph N/A   Overcast
3:13 PM 30.2 °F 21.9 °F 19.4 °F 64% 30.12 in 10.0 mi NW 9.2 mph - N/A   Overcast
3:33 PM 30.2 °F 22.6 °F 19.4 °F 64% 30.12 in 10.0 mi NNW 8.1 mph - N/A   Overcast
3:53 PM 30.2 °F 21.9 °F 21.2 °F 69% 30.12 in 10.0 mi NNW 9.2 mph - N/A Snow Light Snow
4:13 PM 30.2 °F 22.6 °F 19.4 °F 64% 30.12 in 10.0 mi NNW 8.1 mph - N/A   Overcast
4:33 PM 30.2 °F 21.9 °F 19.4 °F 64% 30.12 in 10.0 mi North 9.2 mph - N/A   Overcast
4:53 PM 30.2 °F 21.3 °F 19.4 °F 64% 30.12 in 10.0 mi North 10.4 mph - N/A   Overcast
5:13 PM 30.2 °F 21.9 °F 19.4 °F 64% 30.13 in 10.0 mi North 9.2 mph - N/A   Overcast
5:33 PM 30.2 °F 21.9 °F 19.4 °F 64% 30.13 in 10.0 mi North 9.2 mph - N/A   Overcast
6:14 PM 30.2 °F 21.9 °F 19.4 °F 64% 30.14 in 10.0 mi North 9.2 mph - N/A   Overcast
6:33 PM 30.2 °F 22.6 °F 19.4 °F 64% 30.15 in 10.0 mi North 8.1 mph - N/A   Overcast
6:53 PM 30.2 °F 22.6 °F 19.4 °F 64% 30.14 in 10.0 mi North 8.1 mph - N/A   Overcast
7:13 PM 30.2 °F 23.4 °F 17.6 °F 60% 30.15 in 10.0 mi North 6.9 mph - N/A   Overcast
7:33 PM 30.2 °F 22.6 °F 17.6 °F 60% 30.15 in 10.0 mi North 8.1 mph - N/A   Overcast
7:53 PM 30.2 °F 22.6 °F 17.6 °F 60% 30.15 in 10.0 mi North 8.1 mph - N/A   Overcast
8:13 PM 28.4 °F 19.7 °F 17.6 °F 64% 30.15 in 10.0 mi North 9.2 mph - N/A   Overcast
8:33 PM 28.4 °F 19.7 °F 15.8 °F 59% 30.15 in 10.0 mi North 9.2 mph - N/A   Overcast
8:53 PM 28.4 °F 20.4 °F 15.8 °F 59% 30.16 in 10.0 mi North 8.1 mph - N/A   Overcast
9:13 PM 28.4 °F 20.4 °F 15.8 °F 59% 30.16 in 10.0 mi North 8.1 mph - N/A   Overcast
9:33 PM 28.4 °F 22.2 °F 15.8 °F 59% 30.16 in 10.0 mi North 5.8 mph - N/A   Overcast
9:54 PM 28.4 °F 22.2 °F 15.8 °F 59% 30.16 in 10.0 mi North 5.8 mph - N/A   Overcast
10:14 PM 28.4 °F 22.2 °F 15.8 °F 59% 30.16 in 10.0 mi NNE 5.8 mph - N/A   Overcast
10:33 PM 28.4 °F 21.2 °F 15.8 °F 59% 30.16 in 10.0 mi NE 6.9 mph - N/A   Overcast
10:53 PM 28.4 °F 22.2 °F 15.8 °F 59% 30.16 in 10.0 mi NNE 5.8 mph - N/A   Overcast
11:13 PM 28.4 °F 23.3 °F 15.8 °F 59% 30.16 in 10.0 mi NNE 4.6 mph - N/A   Overcast
11:33 PM 28.4 °F 22.2 °F 15.8 °F 59% 30.16 in 10.0 mi NNE 5.8 mph - N/A   Overcast
11:54 PM 26.6 °F 19.1 °F 15.8 °F 64% 30.15 in 10.0 mi NNE 6.9 mph - N/A   Overcast